Regional Weather Roundup
Issued by NWS

Home | Current Version | Previous Version | Graphics & Text | Print | Product List | Glossary On
Versions: 1 2 3 4 5 6 7 8 9 10 11 12 13 14 15 16 17 18 19 20 21 22 23 24 25 26 27 28 29 30 31 32 33 34 35 36 37 38 39 40 41 42 43 44 45 46 47 48 49 50
000
ASUS45 KTFX 030010
RWRMT
MONTANA REGIONAL WEATHER ROUNDUP
NATIONAL WEATHER SERVICE GREAT FALLS MT
600 PM MDT WED SEP 02 2015

NOTE: "FAIR" INDICATES FEW OR NO CLOUDS BELOW 12000 FEET WITH NO
SIGNIFICANT WEATHER AND/OR OBSTRUCTIONS TO VISIBILITY.

MTZ001>007-043-030100-
WEST OF THE DIVIDE

CITY           SKY/WX    TMP DP  RH WIND       PRES   REMARKS
KALISPELL      CLOUDY    64  38  38 SW13      29.86R
MISSOULA       CLOUDY    68  40  35 NW17G30   29.83R
BUTTE          MOSUNNY   77  31  18 NW17G24   29.81R
MULLAN PASS    LGT RAIN  41  39  93 VRB3      29.96F
DEER LODGE       N/A     72  37  28 NW25G31   29.82R
EUREKA           N/A     66  36  32 S7G17     29.83S
HAMILTON         N/A     70  46  43 N6        29.79R
LIBBY            N/A     66  36  32 SW5       29.83F
PLAINS           N/A     64  42  44 CALM      29.90S
RONAN            N/A     64  42  44 SW17      29.93R
$$

MTZ008-052>055-030100-
SOUTHWEST MONTANA

CITY           SKY/WX    TMP DP  RH WIND       PRES   REMARKS
BOZEMAN        PTSUNNY   86  27  11 S17G28    29.73S
DILLON         PTSUNNY   81  32  17 SW17G26   29.77R
W YELLOWSTONE  MOSUNNY   75  25  15 SW16G30   29.99R
$$

MTZ009-010-012-014-046-048-049-054-030100-
EAST SLOPES AND CENTRAL MONTANA

CITY           SKY/WX    TMP DP  RH WIND       PRES   REMARKS
CUT BANK       MOSUNNY   67  37  33 W30G37    29.80R
GREAT FALLS    CLOUDY    78  32  18 NW15      29.73R
MALMSTROM AFB  CLOUDY    79  32  18 NW15      29.73R
HELENA         PTSUNNY   77  38  24 N16       29.75R
CONRAD           N/A     74  38  27 W23       29.78F
$$

MTZ011-013-016-021-045-047-050-051-030100-
NORTH CENTRAL MONTANA

CITY           SKY/WX    TMP DP  RH WIND       PRES   REMARKS
HAVRE          CLOUDY    84  36  18 W13       29.65S
LEWISTOWN      CLOUDY    81  38  21 N9        29.73R
N BAR RANCH      N/A     84  32  15 SW6G12    29.76S
CHINOOK          N/A     81  45  28 CALM      29.65S
FORT BENTON      N/A     84  30  14 W17G23    29.68R
$$

MTZ017>020-022>027-061-062-030100-
NORTHEAST MONTANA

CITY           SKY/WX    TMP DP  RH WIND       PRES   REMARKS
GLASGOW        PTSUNNY   94  33  11 E3        29.61S
JORDAN           N/A     94  36  13 N12       29.62R
SIDNEY         PTSUNNY   93  45  18 NE3         N/A
WOLF POINT     CLOUDY    97  37  12 NE7       29.59S HX  92
PLENTYWOOD       N/A     95  37  13 CALM      29.64S HX  90
POPLAR           N/A     97  39  13 E7        29.60F HX  92
$$

MTZ028>42-056>058-030100-
SOUTHCENTRAL AND SOUTHEAST MONTANA

CITY           SKY/WX    TMP DP  RH WIND       PRES   REMARKS
BAKER          PTSUNNY   94  41  16 SE13      29.71F HX  90
BILLINGS       MOSUNNY   93  31  11 SW9       29.69F
LIVINGSTON     MOSUNNY   87  24  10 SW29G36   29.75F
MILES CITY     PTSUNNY   95  41  15 SE3       29.64F HX  91
FORSYTH          N/A     99  32   9 W5        29.63S HX  93
LAUREL           N/A     95  36  12 SW8       29.71S HX  90
ROUNDUP          N/A     93  31  11 SW12      29.62S
$$

REGIONAL REPORTS...DAKOTAS

CITY           SKY/WX    TMP DP  RH WIND       PRES   REMARKS
WILLISTON      PTSUNNY   96  45  17 CALM      29.63S HX  92
MINOT          SUNNY     91  60  35 SE13      29.67F HX  90
DICKINSON      SUNNY     94  45  18 S12       29.70R HX  90
CROSBY           N/A     91  55  29 SE13      29.64S
BISMARCK       SUNNY     90  63  40 SE10      29.71S HX  91
GRAND FORKS    MOSUNNY   86  63  45 S14       29.76S
FARGO          SUNNY     85  67  54 SE12      29.78S
BUFFALO SD       N/A     92  48  22 SE7       29.69S
RAPID CITY     SUNNY     93  49  22 SW5       29.76S HX  90
$$

REGIONAL REPORTS...WYOMING/IDAHO/WASHINGTON

CITY           SKY/WX    TMP DP  RH WIND       PRES   REMARKS
GILLETTE       SUNNY     91  33  12 SW20G25   29.81S
SHERIDAN       SUNNY     93  31  11 SW13      29.75R
BUFFALO WY     SUNNY     90  28  11 SW14G24   29.86S
CODY           MOSUNNY   88  30  12 W10G22    29.82S
YELLOWSTONE LA   N/A     68  35  29 VRB5      30.11R
IDAHO FALLS    MOSUNNY   85  37  18 SW13      29.85F
SALMON         MOSUNNY   79  37  22 W13       29.71R
BOISE          PTSUNNY   82  38  20 NW12      29.73F
SPOKANE        PTSUNNY   68  37  32 SW16      29.84R
$$

REGIONAL REPORTS...ALBERTA

CITY           SKY/WX    TMP DP  RH WIND       PRES   REMARKS
EDMONTON       MOSUNNY   59  46  63 W7        29.67R
CALGARY        PTSUNNY   63  28  27 W18G29    29.72R
LETHBRIDGE     MOSUNNY   70  32  24 SW26G36   29.75R
MEDICINE HAT   PTSUNNY   77  36  22 W14G22    29.68R
WATERTON GATE    N/A     59  34  38 SW17G26     N/A
ONEFOUR          N/A     75  30  19 W28G36      N/A
$$

REGIONAL REPORTS...SASKATCHEWAN

CITY           SKY/WX    TMP DP  RH WIND       PRES   REMARKS
SWIFT CURRENT  SUNNY     81  39  22 W6        29.67R
REGINA         CLOUDY    79  54  41 SW9       29.63R
SASKATOON      PTSUNNY   79  57  47 NW2       29.59R
CYPRESS HILLS    N/A     73  32  21 W10         N/A
VAL MARIE        N/A     84  41  21 SW2         N/A
ROCKGLEN         N/A     79  48  34 W3          N/A
$$


USA.gov is the U.S. government's official web portal to all federal, state and local government web resources and services.